Regional Weather Roundup
Issued by NWS

Home | Current Version | Previous Version | Text Only | Print | Product List | Glossary On
Versions: 1 2 3 4 5 6 7 8 9 10 11 12 13 14 15 16 17 18 19 20 21 22 23 24 25 26 27 28 29 30 31 32 33 34 35 36 37 38 39 40 41 42 43 44 45 46 47 48 49
000
ASUS42 KTBW 020610
RWRFL
FLORIDA REGIONAL WEATHER ROUNDUP
NATIONAL WEATHER SERVICE TAMPA BAY RUSKIN FL
200 AM EDT THU OCT 02 2014

NOTE: "FAIR" INDICATES FEW OR NO CLOUDS BELOW 12,000 FEET WITH NO
SIGNIFICANT WEATHER AND/OR OBSTRUCTIONS TO VISIBILITY.


FLZ001>010-012>015-112-114-115-020700-
PANHANDLE FLORIDA

CITY           SKY/WX    TMP DP  RH WIND       PRES   REMARKS
PENSACOLA      PTCLDY    72  71  97 CALM      29.97F
PENSACOLA NAS  PTCLDY    72  71  97 CALM      29.97S
MILTON NAS     CLEAR     67  65  93 CALM      29.99S
CRESTVIEW      PTCLDY    66  65  96 CALM      30.00F FOG
DUKE FIELD     FAIR      67  67 100 CALM      29.99S
VALPARAISO     PTCLDY    71  69  91 CALM      29.98F
MARY ESTHER    PTCLDY    70  66  85 NE2       29.97F
TRI COUNTY     FAIR      67  67 100 CALM      30.01S FOG
PANAMA CITY    FAIR      72  69  90 CALM      29.99S
TYNDALL AFB    CLOUDY    73  73  99 E1        30.00S
APALACHICOLA   CLEAR     73  69  87 NE3       29.99F

STATION/POSITION SKY/WX   TEMP    WIND        PRES    WAVE   SWELL
                          AIR SEA DIR/SP/G            HT/PER HT/PER
                          (F)     (DEG/KT/KT) (MB)    (FT/S) (FT/S)
30.1N   87.6W              80 82  160/ 10/ 12 1014.6F   1/ 3
29.2N   88.2W              81 82  140/ 12/ 14 1014.6F   1/ 3
28.8N   86.0W              81 83  120/ 12/ 14 1014.9F   1/ 3
PANAMA CITY BEAC           79 81  150/  6/  8 1015.4S
CAPE SAN BLAS    NOT AVBL
TOWER C                    79      80/  6/  7 1015.6S
28.5N   84.5W              81 83   70/  6/  6 1015.4F   1

$$
FLZ011-016>038-118-127-128-134-139-239-020700-
NORTH FLORIDA

CITY           SKY/WX    TMP DP  RH WIND       PRES   REMARKS
MARIANNA       MOCLDY    70  70 100 CALM      30.00S
TALLAHASSEE    CLEAR     70  68  93 CALM      30.01S
PERRY          CLEAR     68  66  94 CALM      30.01F
CROSS CITY       N/A     73  71  93 CALM      30.00S
LAKE CITY      CLOUDY    72  70  94 CALM      30.01F
GAINESVILLE    CLOUDY    73  71  93 NE3       30.00F
MAYPORT NAS    CLOUDY    77  72  84 CALM      30.00S
JACKSONVILLE   CLOUDY    71  71 100 N3        30.00S
JAX NAS        MOCLDY    79  71  76 N3        30.00F
JAX CRAIG      CLOUDY    74  71  91 CALM      30.00F
JAX CECIL      CLOUDY    72  72 100 CALM      30.01S
FERNANDINA BEA CLOUDY    81  73  78 CALM      29.99F
ST AUGUSTINE   MOCLDY    79  74  84 E6        30.00S

STATION/POSITION SKY/WX   TEMP    WIND        PRES    WAVE   SWELL
                          AIR SEA DIR/SP/G            HT/PER HT/PER
                          (F)     (DEG/KT/KT) (MB)    (FT/S) (FT/S)
SHELL POINT                77      90/  3/  6   N/A
KEATON BEACH               72      80/  4/  5 1016.0F
CEDAR KEY                  76      60/  7/  7 1016.1F
FERNANDINA                 76 78   70/  2/  3 1015.4F
30.7N   81.3W                 79                N/A     3/ 5
MAYPORT                    79 79   70/  2/  4   N/A
31.4N   80.9W              78 79   90/ 10/ 12 1015.9F   2/ 8   2/ 8
ST AUGUSTINE               79      70/  8/  9 1016.1F

$$
FLZ040-043>046-052-053-057-058-063-144-020700-
INTERIOR CENTRAL FLORIDA

CITY           SKY/WX    TMP DP  RH WIND       PRES   REMARKS
OCALA          CLEAR     73  70  88 CALM      30.00R
THE VILLAGES     N/A     75  75 100 CALM      29.89S
LEESBURG       PTCLDY    76  73  91 CALM      29.99F
SANFORD        MOCLDY    74  73  97 CALM      29.98S
ORLANDO EXEC   CLEAR     76  73  91 NW5       29.98F
ORLANDO INTL   PTCLDY    75  74  96 CALM      29.98F
WINTER HAVEN   CLEAR     75  73  93 CALM      29.99F
LAKELAND       CLOUDY    73  73 100 CALM      29.99F
BARTOW         FAIR      73  73 100 CALM      29.99F
OKEECHOBEE       N/A     73  73 100 MISG      29.97F

$$
FLZ041-047-054-059-064-141-147-020700-
EAST CENTRAL FLORIDA

CITY           SKY/WX    TMP DP  RH WIND       PRES   REMARKS
DAYTONA BEACH  PTCLDY    76  74  93 CALM      29.98F
DELAND         CLEAR     73  73 100 CALM      29.99F
JFK SPACE CTR  PTCLDY    75  73  94 NE2       29.96S
CAPE CANAVERAL CLEAR     78  75  90 E5        29.95S
PATRICK AFB    PTCLDY    80  77  89 NE8       29.95F
MELBOURNE      PTCLDY    77  76  96 W6        29.95F
VERO BEACH     CLEAR     74  72  93 NW3       29.95F
FT PIERCE      CLEAR     75  73  93 CALM      29.95F
STUART         CLEAR     77  73  88 SW3       29.96F

STATION/POSITION SKY/WX   TEMP    WIND        PRES    WAVE   SWELL
                          AIR SEA DIR/SP/G            HT/PER HT/PER
                          (F)     (DEG/KT/KT) (MB)    (FT/S) (FT/S)
28.5N   80.2W              80 83  100/ 12/ 14 1014.8F
28.9N   78.5W              78 85   90/ 16/ 17 1015.0F   3/ 7   2/ 8
TRIDENT PIER               78 84   10/  4/  6 1014.2S
28.4N   80.5W                 83                N/A     2/ 4
27.6N   80.2W                 83                N/A     2/ 7

$$
FLZ050-056-061-142-242-148-248-149-249-151-251-155-255-
160-260-020700-
WEST CENTRAL FLORIDA

CITY           SKY/WX    TMP DP  RH WIND       PRES   REMARKS
CRYSTAL RIVER  FAIR      73  72  94 CALM      30.00R
INVERNESS      FAIR      73  63  68 CALM      30.00R HAZE
BROOKSVILLE    CLEAR     74  72  93 CALM      30.00S
ZEPHYRHILLS      N/A     68  68 100 CALM      30.00S
CLEARWATER     PTCLDY    78  75  90 E5        29.97F
TAMPA INTL     PTCLDY    78  74  87 CALM      29.98F
TAMPA EXEC     PTCLDY    77  73  88 CALM      29.99S
PLANT CITY     CLOUDY    77 N/A N/A CALM      30.00F
MACDILL AFB    CLEAR     77  77 100 E5        29.98S
ST PETERSBURG  MOCLDY    79  76  90 E9        29.96S
SARASOTA       CLEAR     76  74  93 CALM      29.95F
VENICE           N/A     77  75  94 MISG      29.97F

STATION/POSITION SKY/WX   TEMP    WIND        PRES    WAVE   SWELL
                          AIR SEA DIR/SP/G            HT/PER HT/PER
                          (F)     (DEG/KT/KT) (MB)    (FT/S) (FT/S)
CEDAR KEY                  76      60/  7/  7 1016.1F
28.5N   84.5W              81 83   70/  6/  6 1015.4F   1
27.3N   84.3W                 84                N/A     1/ 4
CLEARWATER BEACH           79 83   40/  3/  5 1014.8F
MIDDLE TAMPA BAY           80      80/  7/  8 1015.3S
VENICE                     79 85   80/  3/  3 1014.4F

$$
FLZ066-069-070-075>078-162-262-165-265-020700-
SOUTHWEST FLORIDA AND KEYS

CITY           SKY/WX    TMP DP  RH WIND       PRES   REMARKS
PUNTA GORDA    CLEAR     78  75  90 NW3       29.98F
FT MYERS       CLEAR     77  76  96 CALM      29.96F
SOUTHWEST INTL CLEAR     76  75  97 CALM      29.97F
NAPLES         CLEAR     81  76  84 CALM      29.96F
MARCO ISLAND   CLEAR     79  75  89 CALM      29.97S
MARATHON       CLEAR     81  78  91 CALM      29.98S
KEY WEST NAS   PTCLDY    82  75  79 CALM      29.98F
KEY WEST INTL  PTCLDY    83  76  79 SE3       29.98F

STATION/POSITION SKY/WX   TEMP    WIND        PRES    WAVE   SWELL
                          AIR SEA DIR/SP/G            HT/PER HT/PER
                          (F)     (DEG/KT/KT) (MB)    (FT/S) (FT/S)
VENICE                     79 85   80/  3/  3 1014.4F
NAPLES                     83 88  300/  4/  5 1015.3F
DRY TORTUGAS               84     110/  2/  2 1015.4F
NW FL BAY                  85     320/  4/  5 1015.5F
SAND KEY                   83     170/  8/ 15 1015.4F
SOMBRERO KEY               83     320/  1/  2 1016.0F
LONG KEY                   84 87  250/  5/  5 1015.9F
MOLASSES REEF              84 85  310/  3/  4 1015.0F

$$
FLZ067-068-071>074-168-172>174-020700-
SOUTHEAST FLORIDA

CITY           SKY/WX    TMP DP  RH WIND       PRES   REMARKS
W PALM BEACH   PTCLDY    77  75  93 SW7       29.94F
FT LAUDER-EXEC CLEAR     78  74  87 CALM      29.96F
FT LAUDERDALE  PTCLDY    81  76  84 W5        29.96F
POMPANO BEACH  PTCLDY    81  77  88 CALM      29.96F
PEMBROKE PINES PTCLDY    80  77  90 SW5       29.98F
OPA LOCKA      PTCLDY    80  77  90 W6        29.97F
MIAMI          PTCLDY    82  76  81 W5        29.97F
WEST KENDALL   CLEAR     78  75  90 CALM      29.97F
HOMESTEAD      CLEAR     78  76  93 SW3       29.97F

STATION/POSITION SKY/WX   TEMP    WIND        PRES    WAVE   SWELL
                          AIR SEA DIR/SP/G            HT/PER HT/PER
                          (F)     (DEG/KT/KT) (MB)    (FT/S) (FT/S)
PORT EVERGLADES            81     230/  3/  5 1014.6
VIRGINIA KEY               83 86  290/  4/  5 1015.2F
LAKE WORTH                 80 85  200/  6/  8 1014.1S
FOWEY ROCKS                83 85  290/  5/  6 1015.1F
SETTLEMENT POINT           80     200/ 15/ 16 1014.9F

$$



USA.gov is the U.S. government's official web portal to all federal, state and local government web resources and services.